Portland Troutdale, OR

8:52 AM PST on February 24, 2018 (GMT -0800)
Portland-Troutdale

Weather History for KTTD - March, 2013

Change the Weather History Date:

Sunday, March 31, 2013

  Actual Average Record
Temperature  
Mean Temperature 63 °F 50 °F  
Max Temperature 76 °F 59 °F 76 °F (2013)
Min Temperature 50 °F 40 °F 30 °F (1949)
Degree Days  
Heating Degree Days 2 15  
Month to date heating degree days 498 545  
Cooling Degree Days 0 0  
Month to date cooling degree days 0 0  
Growing Degree Days 13 (Base 50)    
Moisture  
Dew Point 44 °F    
Average Humidity 52    
Maximum Humidity 71    
Minimum Humidity 33    
Precipitation  
Precipitation 0.00 in 0.15 in 0.76 in (2012)
Month to date precipitation 1.75 4.64  
Year to date precipitation 6.50 15.91  
Snow  
Snow 0.00 in - - ()
Month to date snowfall 0.0  
Snow Depth 0.00 in    
Sea Level Pressure  
Sea Level Pressure 29.95 in    
Wind  
Wind Speed 6 mph (South)    
Max Wind Speed 18 mph    
Max Gust Speed 23 mph    
Visibility 10 miles    
Events      
T = Trace of Precipitation, MM = Missing Value Source: NWS Daily Summary

Daily Weather History Graph

Daily Weather History Graph

Search for Another Location

Airport or City:

Trip Planner

Search our weather history database for the weather conditions in past years. The results will help you decide how hot, cold, wet, or windy it might be!

Date:

Astronomy

Mar. 31, 2013 Rise Set
Actual Time 6:51 AM PDT 7:36 PM PDT
Civil Twilight 6:21 AM PDT 8:06 PM PDT
Nautical Twilight 5:45 AM PDT 8:42 PM PDT
Astronomical Twilight 5:08 AM PDT 9:20 PM PDT
Moon 12:00 AM PDT (3/31) 9:31 AM PDT (3/31)
Length of Visible Light 13h 45m
Length of Day
12h 45m
Waning Gibbous, 76% of the Moon is Illuminated
Mar 31
Waning Gibbous
Apr 2
Last Quarter
Apr 10
New
Apr 18
First Quarter
Apr 25
Full

Hourly Weather History & Observations

Time (PDT) Temp. Dew Point Humidity Pressure Visibility Wind Dir Wind Speed Gust Speed Precip Events Conditions
12:53 AM 60.1 °F 42.1 °F 51% 29.96 in 10.0 mi East 13.8 mph - N/A   Clear
1:53 AM 55.9 °F 44.1 °F 64% 29.97 in 10.0 mi Calm Calm - N/A   Clear
2:53 AM 55.9 °F 43.0 °F 62% 29.96 in 10.0 mi Calm Calm - N/A   Clear
3:53 AM 57.0 °F 39.9 °F 53% 29.96 in 10.0 mi East 10.4 mph 17.3 mph N/A   Clear
4:53 AM 57.0 °F 39.0 °F 51% 29.96 in 10.0 mi East 16.1 mph - N/A   Clear
5:53 AM 55.9 °F 39.9 °F 55% 29.97 in 10.0 mi ESE 11.5 mph 19.6 mph N/A   Clear
6:53 AM 52.0 °F 39.9 °F 63% 29.99 in 10.0 mi Calm Calm - N/A   Clear
7:53 AM 51.1 °F 42.1 °F 71% 30.00 in 10.0 mi East 3.5 mph - N/A   Clear
8:53 AM 55.9 °F 42.1 °F 60% 30.00 in 10.0 mi East 9.2 mph - N/A   Clear
9:53 AM 57.9 °F 42.1 °F 56% 30.00 in 10.0 mi East 10.4 mph 17.3 mph N/A   Clear
10:53 AM 61.0 °F 42.1 °F 50% 29.99 in 10.0 mi Calm Calm - N/A   Clear
11:53 AM 64.0 °F 42.1 °F 45% 29.99 in 10.0 mi Calm Calm - N/A   Clear
12:53 PM 68.0 °F 44.1 °F 42% 29.96 in 10.0 mi NW 4.6 mph - N/A   Clear
1:53 PM 71.1 °F 45.0 °F 39% 29.93 in 10.0 mi WNW 3.5 mph - N/A   Clear
2:53 PM 73.0 °F 44.1 °F 35% 29.91 in 10.0 mi Variable 3.5 mph - N/A   Clear
3:53 PM 75.9 °F 44.1 °F 32% 29.89 in 10.0 mi Variable 3.5 mph - N/A   Clear
4:53 PM 75.0 °F 45.0 °F 34% 29.88 in 10.0 mi NW 4.6 mph - N/A   Clear
5:53 PM 73.0 °F 48.9 °F 42% 29.88 in 10.0 mi SW 10.4 mph - N/A   Clear
6:53 PM 71.1 °F 46.9 °F 42% 29.89 in 10.0 mi SSW 11.5 mph - N/A   Clear
7:53 PM 68.0 °F 48.9 °F 50% 29.90 in 10.0 mi SSW 4.6 mph - N/A   Clear
8:53 PM 66.0 °F 48.9 °F 54% 29.93 in 10.0 mi WSW 9.2 mph - N/A   Clear
9:53 PM 63.0 °F 48.0 °F 58% 29.97 in 10.0 mi SSW 8.1 mph - N/A   Overcast
10:53 PM 61.0 °F 48.9 °F 64% 29.99 in 10.0 mi SSW 8.1 mph - N/A   Partly Cloudy
11:53 PM 59.0 °F 48.9 °F 69% 30.00 in 10.0 mi SW 4.6 mph - N/A   Overcast